| time (UTC) | temp F | wind direction | speed MPH | gust MPH | rain 1hr in | rain 24hr in | rain mn in | humidity % | barometer mb |
| 20260902155212 | 89 | 262 | 4.0 | 15.0 | 0.00 | 0.00 | 0.00 | 37 | 1020.6 |
| 20260902154713 | 89 | 268 | 6.0 | 13.0 | 0.00 | 0.00 | 0.00 | 37 | 1020.6 |
| 20260902153709 | 89 | 292 | 4.0 | 14.0 | 0.00 | 0.00 | 0.00 | 37 | 1020.7 |
| 20260902153218 | 89 | 344 | 6.0 | 14.0 | 0.00 | 0.00 | 0.00 | 37 | 1020.6 |
| 20260902152706 | 89 | 329 | 4.0 | 13.0 | 0.00 | 0.00 | 0.00 | 38 | 1020.6 |
| 20260902152212 | 89 | 285 | 6.0 | 15.0 | 0.00 | 0.00 | 0.00 | 37 | 1020.7 |
| 20260902151715 | 89 | 267 | 4.0 | 15.0 | 0.00 | 0.00 | 0.00 | 37 | 1020.7 |
| 20260902151210 | 89 | 279 | 5.0 | 15.0 | 0.00 | 0.00 | 0.00 | 37 | 1020.7 |
| 20260902150707 | 88 | 300 | 5.0 | 9.0 | 0.00 | 0.00 | 0.00 | 39 | 1020.7 |
| 20260902150212 | 89 | 278 | 4.0 | 11.0 | 0.00 | 0.00 | 0.00 | 38 | 1020.7 |
| 20260902145706 | 89 | 270 | 3.0 | 13.0 | 0.00 | 0.00 | 0.00 | 38 | 1020.8 |
| 20260902145219 | 89 | 326 | 2.0 | 18.0 | 0.00 | 0.00 | 0.00 | 39 | 1020.7 |
| 20260902144712 | 89 | 267 | 4.0 | 18.0 | 0.00 | 0.00 | 0.00 | 38 | 1020.7 |
| 20260902144210 | 89 | 275 | 4.0 | 18.0 | 0.00 | 0.00 | 0.00 | 37 | 1020.7 |
| 20260902143707 | 89 | 244 | 5.0 | 15.0 | 0.00 | 0.00 | 0.00 | 39 | 1020.8 |
| 20260902142718 | 89 | 255 | 5.0 | 10.0 | 0.00 | 0.00 | 0.00 | 40 | 1020.7 |
| 20260902142216 | 89 | 284 | 4.0 | 10.0 | 0.00 | 0.00 | 0.00 | 40 | 1020.7 |
| 20260902141707 | 88 | 7 | 1.0 | 12.0 | 0.00 | 0.00 | 0.00 | 40 | 1020.8 |
| 20260902141211 | 88 | 337 | 3.0 | 12.0 | 0.00 | 0.00 | 0.00 | 41 | 1020.9 |
| 20260902140717 | 88 | 326 | 2.0 | 12.0 | 0.00 | 0.00 | 0.00 | 40 | 1020.9 |
| 20260902140204 | 88 | 272 | 3.0 | 11.0 | 0.00 | 0.00 | 0.00 | 41 | 1021.0 |
| 20260902135217 | 88 | 251 | 1.0 | 16.0 | 0.00 | 0.00 | 0.00 | 41 | 1021.0 |
| 20260902134717 | 88 | 312 | 3.0 | 16.0 | 0.00 | 0.00 | 0.00 | 42 | 1021.0 |
| 20260902134206 | 88 | 288 | 6.0 | 12.0 | 0.00 | 0.00 | 0.00 | 41 | 1021.1 |
| 20260902133214 | 88 | 237 | 6.0 | 10.0 | 0.00 | 0.00 | 0.00 | 42 | 1021.1 |
| 20260902132719 | 88 | 354 | 1.0 | 19.0 | 0.00 | 0.00 | 0.00 | 42 | 1021.2 |
| 20260902131717 | 87 | 327 | 4.0 | 19.0 | 0.00 | 0.00 | 0.00 | 43 | 1021.2 |
| 20260902131210 | 87 | 255 | 7.0 | 11.0 | 0.00 | 0.00 | 0.00 | 44 | 1021.2 |
| 20260902130717 | 87 | 286 | 4.0 | 14.0 | 0.00 | 0.00 | 0.00 | 43 | 1021.2 |
| 20260902130208 | 87 | 260 | 4.0 | 14.0 | 0.00 | 0.00 | 0.00 | 43 | 1021.2 |
| 20260902125709 | 87 | 274 | 4.0 | 14.0 | 0.00 | 0.00 | 0.00 | 44 | 1021.3 |
| 20260902125209 | 86 | 279 | 5.0 | 13.0 | 0.00 | 0.00 | 0.00 | 44 | 1021.3 |
| 20260902124716 | 86 | 302 | 2.0 | 16.0 | 0.00 | 0.00 | 0.00 | 44 | 1021.4 |
| 20260902124211 | 85 | 343 | 4.0 | 16.0 | 0.00 | 0.00 | 0.00 | 45 | 1021.4 |
| 20260902123210 | 85 | 338 | 5.0 | 15.0 | 0.00 | 0.00 | 0.00 | 45 | 1021.5 |
| 20260902122717 | 85 | 347 | 6.0 | 14.0 | 0.00 | 0.00 | 0.00 | 46 | 1021.5 |
| 20260902122211 | 85 | 286 | 4.0 | 14.0 | 0.00 | 0.00 | 0.00 | 45 | 1021.5 |
| 20260902121710 | 86 | 262 | 4.0 | 14.0 | 0.00 | 0.00 | 0.00 | 45 | 1021.6 |
| 20260902121209 | 85 | 39 | 4.0 | 14.0 | 0.00 | 0.00 | 0.00 | 46 | 1021.6 |
| 20260902120712 | 84 | 326 | 6.0 | 14.0 | 0.00 | 0.00 | 0.00 | 46 | 1021.6 |
| 20260902115706 | 85 | 282 | 4.0 | 14.0 | 0.00 | 0.00 | 0.00 | 45 | 1021.7 |
| 20260902115215 | 84 | 344 | 5.0 | 13.0 | 0.00 | 0.00 | 0.00 | 46 | 1021.8 |
| 20260902114705 | 84 | 343 | 4.0 | 13.0 | 0.00 | 0.00 | 0.00 | 46 | 1021.9 |
| 20260902114210 | 84 | 354 | 2.0 | 15.0 | 0.00 | 0.00 | 0.00 | 46 | 1021.8 |
| 20260902113710 | 84 | 336 | 4.0 | 15.0 | 0.00 | 0.00 | 0.00 | 46 | 1021.9 |
| 20260902113214 | 84 | 298 | 3.0 | 15.0 | 0.00 | 0.00 | 0.00 | 46 | 1022.0 |
| 20260902112712 | 84 | 7 | 4.0 | 13.0 | 0.00 | 0.00 | 0.00 | 46 | 1021.9 |
| 20260902112213 | 83 | 347 | 6.0 | 16.0 | 0.00 | 0.00 | 0.00 | 47 | 1022.0 |
| 20260902111213 | 83 | 358 | 4.0 | 16.0 | 0.00 | 0.00 | 0.00 | 46 | 1022.2 |
| 20260902110705 | 83 | 258 | 5.0 | 10.0 | 0.00 | 0.00 | 0.00 | 47 | 1022.3 |
| 20260902110212 | 83 | 264 | 4.0 | 10.0 | 0.00 | 0.00 | 0.00 | 46 | 1022.4 |
| 20260902105213 | 82 | 284 | 2.0 | 10.0 | 0.00 | 0.00 | 0.00 | 49 | 1022.3 |
| 20260902104707 | 82 | 357 | 4.0 | 15.0 | 0.00 | 0.00 | 0.00 | 49 | 1022.5 |
| 20260902104223 | 82 | 323 | 5.0 | 15.0 | 0.00 | 0.00 | 0.00 | 49 | 1022.5 |
| 20260902103711 | 82 | 341 | 2.0 | 15.0 | 0.00 | 0.00 | 0.00 | 49 | 1022.5 |
| 20260902103205 | 82 | 350 | 6.0 | 13.0 | 0.00 | 0.00 | 0.00 | 49 | 1022.7 |
| 20260902102711 | 82 | 253 | 5.0 | 13.0 | 0.00 | 0.00 | 0.00 | 50 | 1022.8 |
| 20260902102216 | 82 | 282 | 4.0 | 13.0 | 0.00 | 0.00 | 0.00 | 49 | 1022.8 |
| 20260902101718 | 82 | 277 | 4.0 | 11.0 | 0.00 | 0.00 | 0.00 | 49 | 1022.7 |
| 20260902100715 | 82 | 257 | 5.0 | 12.0 | 0.00 | 0.00 | 0.00 | 50 | 1022.9 |
| 20260902100218 | 82 | 268 | 4.0 | 14.0 | 0.00 | 0.00 | 0.00 | 49 | 1022.8 |
| 20260902095215 | 81 | 295 | 3.0 | 14.0 | 0.00 | 0.00 | 0.00 | 50 | 1022.8 |
| 20260902094716 | 81 | 282 | 2.0 | 12.0 | 0.00 | 0.00 | 0.00 | 50 | 1022.8 |
| 20260902094218 | 80 | 296 | 2.0 | 12.0 | 0.00 | 0.00 | 0.00 | 51 | 1022.7 |
| 20260902093710 | 80 | 275 | 2.0 | 12.0 | 0.00 | 0.00 | 0.00 | 50 | 1022.6 |
| 20260902093207 | 80 | 284 | 4.0 | 11.0 | 0.00 | 0.00 | 0.00 | 51 | 1022.6 |
| 20260902092718 | 80 | 330 | 4.0 | 10.0 | 0.00 | 0.00 | 0.00 | 52 | 1022.6 |
| 20260902091210 | 80 | 300 | 2.0 | 9.0 | 0.00 | 0.00 | 0.00 | 53 | 1022.5 |
| 20260902090716 | 79 | 275 | 3.0 | 11.0 | 0.00 | 0.00 | 0.00 | 54 | 1022.5 |
| 20260902090205 | 79 | 239 | 3.0 | 11.0 | 0.00 | 0.00 | 0.00 | 55 | 1022.5 |
| 20260902085210 | 78 | 268 | 4.0 | 11.0 | 0.00 | 0.00 | 0.00 | 55 | 1022.4 |
| 20260902084712 | 78 | 281 | 3.0 | 10.0 | 0.00 | 0.00 | 0.00 | 56 | 1022.4 |
| 20260902084219 | 78 | 261 | 2.0 | 10.0 | 0.00 | 0.00 | 0.00 | 57 | 1022.3 |
| 20260902083716 | 78 | 319 | 4.0 | 10.0 | 0.00 | 0.00 | 0.00 | 57 | 1022.3 |
| 20260902083208 | 78 | 340 | 4.0 | 10.0 | 0.00 | 0.00 | 0.00 | 57 | 1022.4 |
| 20260902082705 | 77 | 271 | 4.0 | 9.0 | 0.00 | 0.00 | 0.00 | 58 | 1022.3 |
| 20260902082215 | 77 | 352 | 4.0 | 9.0 | 0.00 | 0.00 | 0.00 | 59 | 1022.4 |
| 20260902081718 | 77 | 312 | 2.0 | 10.0 | 0.00 | 0.00 | 0.00 | 59 | 1022.3 |
| 20260902081208 | 77 | 284 | 2.0 | 10.0 | 0.00 | 0.00 | 0.00 | 58 | 1022.3 |
| 20260902080712 | 77 | 275 | 3.0 | 10.0 | 0.00 | 0.00 | 0.00 | 59 | 1022.3 |
| 20260902080217 | 77 | 278 | 5.0 | 10.0 | 0.00 | 0.00 | 0.00 | 59 | 1022.2 |
| 20260902075719 | 76 | 288 | 3.0 | 10.0 | 0.00 | 0.00 | 0.00 | 59 | 1022.2 |
| 20260902075212 | 76 | 279 | 5.0 | 8.0 | 0.00 | 0.00 | 0.00 | 60 | 1022.2 |
| 20260902074707 | 76 | 289 | 2.0 | 6.0 | 0.00 | 0.00 | 0.00 | 60 | 1022.1 |
| 20260902074210 | 76 | 307 | 2.0 | 8.0 | 0.00 | 0.00 | 0.00 | 61 | 1022.1 |
| 20260902073214 | 75 | 285 | 2.0 | 8.0 | 0.00 | 0.00 | 0.00 | 62 | 1022.1 |
| 20260902072713 | 75 | 264 | 1.0 | 3.0 | 0.00 | 0.00 | 0.00 | 63 | 1022.1 |
| 20260902072216 | 74 | 78 | 0.0 | 3.0 | 0.00 | 0.00 | 0.00 | 64 | 1022.1 |
| 20260902071714 | 73 | 125 | 0.0 | 0.0 | 0.00 | 0.00 | 0.00 | 65 | 1022.0 |
| 20260902071216 | 73 | 0 | 0.0 | 0.0 | 0.00 | 0.00 | 0.00 | 66 | 1022.1 |
| 20260902070716 | 72 | 0 | 0.0 | 0.0 | 0.00 | 0.00 | 0.00 | 68 | 1022.0 |
| 20260902070211 | 71 | 0 | 0.0 | 2.0 | 0.00 | 0.00 | 0.00 | 69 | 1022.2 |
| 20260902065214 | 70 | 0 | 0.0 | 2.0 | 0.00 | 0.00 | 0.00 | 68 | 1022.0 |
| 20260902064714 | 70 | 106 | 0.0 | 0.0 | 0.00 | 0.00 | 0.00 | 69 | 1021.9 |
| 20260902064209 | 69 | 0 | 0.0 | 3.0 | 0.00 | 0.00 | 0.00 | 71 | 1021.9 |
| 20260902063708 | 68 | 0 | 0.0 | 3.0 | 0.00 | 0.00 | 0.00 | 71 | 1021.9 |
| 20260902063213 | 68 | 0 | 0.0 | 3.0 | 0.00 | 0.00 | 0.00 | 72 | 1021.9 |
| 20260902062710 | 67 | 157 | 0.0 | 2.0 | 0.00 | 0.00 | 0.00 | 73 | 1021.9 |
| 20260902061715 | 66 | 195 | 0.0 | 4.0 | 0.00 | 0.00 | 0.00 | 74 | 1021.9 |
| 20260902061219 | 66 | 189 | 0.0 | 4.0 | 0.00 | 0.00 | 0.00 | 74 | 1021.9 |
| 20260902060715 | 66 | 198 | 1.0 | 3.0 | 0.00 | 0.00 | 0.00 | 75 | 1021.8 |
| 20260902060211 | 66 | 233 | 0.0 | 3.0 | 0.00 | 0.00 | 0.00 | 75 | 1021.8 |
| 20260902055712 | 66 | 227 | 1.0 | 4.0 | 0.00 | 0.00 | 0.00 | 75 | 1021.8 |
| 20260902055218 | 65 | 202 | 1.0 | 5.0 | 0.00 | 0.00 | 0.00 | 75 | 1021.6 |
| 20260902054213 | 65 | 201 | 2.0 | 5.0 | 0.00 | 0.00 | 0.00 | 75 | 1021.5 |
| 20260902053717 | 65 | 195 | 3.0 | 5.0 | 0.00 | 0.00 | 0.00 | 75 | 1021.3 |
| 20260902053212 | 65 | 189 | 2.0 | 6.0 | 0.00 | 0.00 | 0.00 | 75 | 1021.3 |
| 20260902052717 | 65 | 223 | 2.0 | 6.0 | 0.00 | 0.00 | 0.00 | 75 | 1021.2 |
| 20260902052216 | 65 | 212 | 3.0 | 6.0 | 0.00 | 0.00 | 0.00 | 75 | 1021.2 |
| 20260902051711 | 65 | 201 | 2.0 | 5.0 | 0.00 | 0.00 | 0.00 | 75 | 1021.2 |
| 20260902051215 | 65 | 213 | 2.0 | 5.0 | 0.00 | 0.00 | 0.00 | 75 | 1021.2 |
| 20260902050715 | 65 | 223 | 2.0 | 4.0 | 0.00 | 0.00 | 0.00 | 75 | 1021.1 |
| 20260902045710 | 65 | 234 | 1.0 | 2.0 | 0.00 | 0.00 | 0.00 | 74 | 1021.1 |
| 20260902045215 | 65 | 191 | 0.0 | 3.0 | 0.00 | 0.00 | 0.00 | 74 | 1021.1 |
| 20260902044707 | 66 | 199 | 1.0 | 3.0 | 0.00 | 0.00 | 0.00 | 74 | 1021.1 |
| 20260902043717 | 66 | 237 | 2.0 | 3.0 | 0.00 | 0.00 | 0.00 | 74 | 1020.9 |
| 20260902043207 | 66 | 192 | 1.0 | 2.0 | 0.00 | 0.00 | 0.00 | 74 | 1021.0 |
| 20260902042709 | 66 | 225 | 1.0 | 3.0 | 0.00 | 0.00 | 0.00 | 73 | 1021.1 |
| 20260902042219 | 66 | 151 | 1.0 | 3.0 | 0.00 | 0.00 | 0.00 | 73 | 1021.0 |
| 20260902041713 | 66 | 182 | 0.0 | 3.0 | 0.00 | 0.00 | 0.00 | 73 | 1021.0 |
| 20260902040710 | 66 | 177 | 1.0 | 3.0 | 0.00 | 0.00 | 0.00 | 72 | 1021.1 |
| 20260902040213 | 66 | 217 | 1.0 | 3.0 | 0.00 | 0.00 | 0.00 | 72 | 1021.1 |
| 20260902035715 | 67 | 196 | 1.0 | 3.0 | 0.00 | 0.00 | 0.00 | 72 | 1021.0 |
| 20260902035213 | 67 | 0 | 0.0 | 3.0 | 0.00 | 0.00 | 0.00 | 72 | 1021.0 |
| 20260902034708 | 67 | 205 | 1.0 | 3.0 | 0.00 | 0.00 | 0.00 | 72 | 1021.0 |
| 20260902034217 | 67 | 202 | 1.0 | 3.0 | 0.00 | 0.00 | 0.00 | 71 | 1021.0 |
| 20260902033718 | 67 | 217 | 1.0 | 4.0 | 0.00 | 0.00 | 0.00 | 71 | 1020.9 |
| 20260902032711 | 67 | 239 | 2.0 | 4.0 | 0.00 | 0.00 | 0.00 | 71 | 1021.0 |
| 20260902032206 | 67 | 225 | 2.0 | 4.0 | 0.00 | 0.00 | 0.00 | 70 | 1021.0 |
| 20260902031716 | 67 | 201 | 2.0 | 6.0 | 0.00 | 0.00 | 0.00 | 70 | 1021.0 |
| 20260902031209 | 67 | 215 | 2.0 | 6.0 | 0.00 | 0.00 | 0.00 | 70 | 1020.9 |
| 20260902030717 | 67 | 177 | 1.0 | 6.0 | 0.00 | 0.00 | 0.00 | 71 | 1020.9 |
| 20260902030215 | 67 | 202 | 2.0 | 5.0 | 0.00 | 0.00 | 0.00 | 71 | 1020.9 |
| 20260902024713 | 67 | 198 | 1.0 | 3.0 | 0.00 | 0.00 | 0.00 | 72 | 1020.9 |
| 20260902024210 | 67 | 188 | 1.0 | 3.0 | 0.00 | 0.00 | 0.00 | 72 | 1020.9 |
| 20260902023712 | 67 | 199 | 0.0 | 0.0 | 0.00 | 0.00 | 0.00 | 72 | 1020.9 |
| 20260902023208 | 67 | 0 | 0.0 | 0.0 | 0.00 | 0.00 | 0.00 | 72 | 1021.0 |
| 20260902022713 | 67 | 0 | 0.0 | 0.0 | 0.00 | 0.00 | 0.00 | 71 | 1021.0 |
| 20260902021707 | 68 | 0 | 0.0 | 0.0 | 0.00 | 0.00 | 0.00 | 70 | 1020.9 |
| 20260902020730 | 68 | 0 | 0.0 | 0.0 | 0.00 | 0.00 | 0.00 | 69 | 1020.9 |
| 20260902015719 | 68 | 0 | 0.0 | 0.0 | 0.00 | 0.00 | 0.00 | 68 | 1020.9 |
| 20260902015205 | 69 | 0 | 0.0 | 0.0 | 0.00 | 0.00 | 0.00 | 68 | 1020.9 |
| 20260902014720 | 69 | 0 | 0.0 | 0.0 | 0.00 | 0.00 | 0.00 | 67 | 1020.9 |
| 20260902014217 | 69 | 0 | 0.0 | 0.0 | 0.00 | 0.00 | 0.00 | 67 | 1020.9 |
| 20260902013718 | 69 | 0 | 0.0 | 0.0 | 0.00 | 0.00 | 0.00 | 67 | 1020.8 |
| 20260902013212 | 69 | 0 | 0.0 | 0.0 | 0.00 | 0.00 | 0.00 | 67 | 1020.9 |
| 20260902012708 | 69 | 0 | 0.0 | 0.0 | 0.00 | 0.00 | 0.00 | 67 | 1020.9 |
| 20260902012208 | 69 | 0 | 0.0 | 1.0 | 0.00 | 0.00 | 0.00 | 67 | 1020.9 |
| 20260902011709 | 69 | 0 | 0.0 | 1.0 | 0.00 | 0.00 | 0.00 | 67 | 1020.8 |
| 20260902011207 | 69 | 0 | 0.0 | 1.0 | 0.00 | 0.00 | 0.00 | 67 | 1020.8 |
| 20260902010742 | 69 | 144 | 0.0 | 0.0 | 0.00 | 0.00 | 0.00 | 67 | 1020.8 |
| 20260902005717 | 70 | 0 | 0.0 | 0.0 | 0.00 | 0.00 | 0.00 | 66 | 1020.7 |
| 20260902005217 | 70 | 0 | 0.0 | 0.0 | 0.00 | 0.00 | 0.00 | 65 | 1020.7 |
| 20260902004714 | 70 | 0 | 0.0 | 2.0 | 0.00 | 0.00 | 0.00 | 65 | 1020.7 |
| 20260902004217 | 70 | 0 | 0.0 | 2.0 | 0.00 | 0.00 | 0.00 | 64 | 1020.6 |
| 20260902003706 | 71 | 0 | 0.0 | 2.0 | 0.00 | 0.00 | 0.00 | 64 | 1020.7 |
| 20260902003211 | 71 | 175 | 0.0 | 0.0 | 0.00 | 0.00 | 0.00 | 63 | 1020.6 |
| 20260902002217 | 71 | 0 | 0.0 | 1.0 | 0.00 | 0.00 | 0.00 | 63 | 1020.7 |
| 20260902001731 | 71 | 0 | 0.0 | 1.0 | 0.00 | 0.00 | 0.00 | 63 | 1020.6 |
| 20260902001239 | 71 | 0 | 0.0 | 1.0 | 0.00 | 0.00 | 0.00 | 63 | 1020.6 |
| 20260902000205 | 72 | 0 | 0.0 | 0.0 | 0.00 | 0.00 | 0.00 | 63 | 1020.6 |
| 20260901235212 | 73 | 0 | 0.0 | 0.0 | 0.00 | 0.00 | 0.00 | 62 | 1020.6 |
| 20260901234719 | 73 | 0 | 0.0 | 0.0 | 0.00 | 0.00 | 0.00 | 61 | 1020.5 |
| 20260901234210 | 73 | 0 | 0.0 | 0.0 | 0.00 | 0.00 | 0.00 | 61 | 1020.4 |
| 20260901233216 | 74 | 0 | 0.0 | 1.0 | 0.00 | 0.00 | 0.00 | 60 | 1020.5 |
| 20260901232713 | 74 | 0 | 0.0 | 2.0 | 0.00 | 0.00 | 0.00 | 59 | 1020.4 |
| 20260901232209 | 74 | 165 | 0.0 | 2.0 | 0.00 | 0.00 | 0.00 | 59 | 1020.4 |
| 20260901231216 | 75 | 244 | 0.0 | 4.0 | 0.00 | 0.00 | 0.00 | 58 | 1020.6 |
| 20260901230740 | 75 | 203 | 0.0 | 6.0 | 0.00 | 0.00 | 0.00 | 57 | 1020.6 |
| 20260901230211 | 75 | 264 | 1.0 | 6.0 | 0.00 | 0.00 | 0.00 | 57 | 1020.6 |
| 20260901225716 | 75 | 216 | 1.0 | 6.0 | 0.00 | 0.00 | 0.00 | 56 | 1020.6 |
| 20260901225205 | 76 | 223 | 2.0 | 5.0 | 0.00 | 0.00 | 0.00 | 56 | 1020.5 |
| 20260901224713 | 76 | 213 | 1.0 | 3.0 | 0.00 | 0.00 | 0.00 | 56 | 1020.5 |
| 20260901223715 | 76 | 0 | 0.0 | 6.0 | 0.00 | 0.00 | 0.00 | 56 | 1020.4 |
| 20260901222237 | 76 | 254 | 3.0 | 4.0 | 0.00 | 0.00 | 0.00 | 55 | 1020.4 |
| 20260901221712 | 76 | 206 | 1.0 | 6.0 | 0.00 | 0.00 | 0.00 | 55 | 1020.4 |
| 20260901221206 | 76 | 217 | 1.0 | 6.0 | 0.00 | 0.00 | 0.00 | 55 | 1020.4 |
| 20260901220706 | 76 | 227 | 0.0 | 6.0 | 0.00 | 0.00 | 0.00 | 55 | 1020.3 |
| 20260901220212 | 76 | 233 | 1.0 | 6.0 | 0.00 | 0.00 | 0.00 | 54 | 1020.4 |
| 20260901215711 | 77 | 241 | 2.0 | 6.0 | 0.00 | 0.00 | 0.00 | 54 | 1020.4 |
| 20260901215218 | 77 | 227 | 2.0 | 4.0 | 0.00 | 0.00 | 0.00 | 54 | 1020.3 |
| 20260901214717 | 77 | 226 | 0.0 | 4.0 | 0.00 | 0.00 | 0.00 | 54 | 1020.4 |
| 20260901214214 | 77 | 230 | 0.0 | 4.0 | 0.00 | 0.00 | 0.00 | 54 | 1020.4 |
| 20260901213714 | 77 | 232 | 1.0 | 4.0 | 0.00 | 0.00 | 0.00 | 53 | 1020.4 |
| 20260901213216 | 77 | 241 | 0.0 | 4.0 | 0.00 | 0.00 | 0.00 | 53 | 1020.4 |
| 20260901212704 | 77 | 237 | 1.0 | 6.0 | 0.00 | 0.00 | 0.00 | 53 | 1020.4 |
| 20260901212218 | 78 | 248 | 1.0 | 6.0 | 0.00 | 0.00 | 0.00 | 52 | 1020.3 |
| 20260901211709 | 78 | 232 | 1.0 | 6.0 | 0.00 | 0.00 | 0.00 | 52 | 1020.3 |
| 20260901211212 | 78 | 239 | 2.0 | 6.0 | 0.00 | 0.00 | 0.00 | 52 | 1020.2 |
| 20260901210716 | 78 | 215 | 1.0 | 6.0 | 0.00 | 0.00 | 0.00 | 51 | 1020.1 |
| 20260901210206 | 78 | 250 | 2.0 | 6.0 | 0.00 | 0.00 | 0.00 | 51 | 1020.2 |
| 20260901205710 | 78 | 223 | 2.0 | 6.0 | 0.00 | 0.00 | 0.00 | 50 | 1020.2 |
| 20260901205214 | 79 | 268 | 3.0 | 7.0 | 0.00 | 0.00 | 0.00 | 50 | 1020.1 |
| 20260901204718 | 79 | 258 | 1.0 | 9.0 | 0.00 | 0.00 | 0.00 | 49 | 1020.0 |
| 20260901204213 | 79 | 257 | 2.0 | 9.0 | 0.00 | 0.00 | 0.00 | 49 | 1020.1 |
| 20260901203707 | 79 | 241 | 2.0 | 9.0 | 0.00 | 0.00 | 0.00 | 48 | 1020.0 |
| 20260901202718 | 79 | 243 | 1.0 | 6.0 | 0.00 | 0.00 | 0.00 | 48 | 1019.8 |
| 20260901201708 | 78 | 250 | 0.0 | 0.0 | 0.00 | 0.00 | 0.00 | 48 | 1019.8 |
| 20260901195205 | 78 | 0 | 0.0 | 0.0 | 0.00 | 0.00 | 0.00 | 44 | 1019.5 |
| 20260901194730 | 79 | 0 | 0.0 | 0.0 | 0.00 | 0.00 | 0.00 | 44 | 1019.5 |
| 20260901194213 | 80 | 0 | 0.0 | 0.0 | 0.00 | 0.00 | 0.00 | 43 | 1019.4 |
| 20260901193712 | 80 | 0 | 0.0 | 0.0 | 0.00 | 0.00 | 0.00 | 42 | 1019.3 |
| 20260901193211 | 81 | 0 | 0.0 | 2.0 | 0.00 | 0.00 | 0.00 | 41 | 1019.3 |
| 20260901192712 | 81 | 0 | 0.0 | 6.0 | 0.00 | 0.00 | 0.00 | 41 | 1019.1 |
| 20260901192212 | 81 | 0 | 0.0 | 6.0 | 0.00 | 0.00 | 0.00 | 40 | 1019.0 |
| 20260901191712 | 81 | 213 | 0.0 | 6.0 | 0.00 | 0.00 | 0.00 | 40 | 1018.9 |
| 20260901191217 | 82 | 220 | 1.0 | 6.0 | 0.00 | 0.00 | 0.00 | 39 | 1018.7 |
| 20260901190714 | 82 | 234 | 2.0 | 8.0 | 0.00 | 0.00 | 0.00 | 39 | 1018.7 |
| 20260901190217 | 82 | 206 | 0.0 | 8.0 | 0.00 | 0.00 | 0.00 | 38 | 1018.6 |
| 20260901185709 | 83 | 246 | 1.0 | 10.0 | 0.00 | 0.00 | 0.00 | 38 | 1018.5 |
| 20260901185218 | 83 | 267 | 3.0 | 10.0 | 0.00 | 0.00 | 0.00 | 37 | 1018.4 |
| 20260901184717 | 83 | 288 | 2.0 | 10.0 | 0.00 | 0.00 | 0.00 | 37 | 1018.4 |
| 20260901184208 | 83 | 267 | 3.0 | 9.0 | 0.00 | 0.00 | 0.00 | 36 | 1018.2 |
| 20260901183706 | 84 | 289 | 3.0 | 9.0 | 0.00 | 0.00 | 0.00 | 36 | 1018.2 |
| 20260901183206 | 84 | 281 | 3.0 | 9.0 | 0.00 | 0.00 | 0.00 | 36 | 1017.9 |
| 20260901182214 | 84 | 251 | 3.0 | 10.0 | 0.00 | 0.00 | 0.00 | 35 | 1017.9 |
| 20260901181705 | 85 | 292 | 4.0 | 11.0 | 0.00 | 0.00 | 0.00 | 34 | 1018.0 |
| 20260901181211 | 85 | 282 | 4.0 | 12.0 | 0.00 | 0.00 | 0.00 | 34 | 1017.9 |
| 20260901180713 | 85 | 296 | 3.0 | 12.0 | 0.00 | 0.00 | 0.00 | 34 | 1017.8 |
| 20260901180214 | 85 | 267 | 4.0 | 12.0 | 0.00 | 0.00 | 0.00 | 33 | 1017.8 |
| 20260901175706 | 85 | 278 | 6.0 | 13.0 | 0.00 | 0.00 | 0.00 | 33 | 1017.8 |
| 20260901175207 | 86 | 292 | 4.0 | 13.0 | 0.00 | 0.00 | 0.00 | 33 | 1017.8 |
| 20260901174705 | 86 | 278 | 3.0 | 13.0 | 0.00 | 0.00 | 0.00 | 33 | 1017.8 |
| 20260901174205 | 86 | 282 | 7.0 | 13.0 | 0.00 | 0.00 | 0.00 | 33 | 1017.8 |
| 20260901173715 | 87 | 264 | 7.0 | 13.0 | 0.00 | 0.00 | 0.00 | 32 | 1017.8 |
| 20260901173217 | 87 | 291 | 7.0 | 15.0 | 0.00 | 0.00 | 0.00 | 32 | 1017.7 |
| 20260901172713 | 87 | 270 | 5.0 | 16.0 | 0.00 | 0.00 | 0.00 | 32 | 1017.8 |
| 20260901172217 | 88 | 285 | 3.0 | 16.0 | 0.00 | 0.00 | 0.00 | 31 | 1017.7 |
| 20260901171707 | 88 | 281 | 6.0 | 16.0 | 0.00 | 0.00 | 0.00 | 31 | 1017.7 |
| 20260901171206 | 88 | 275 | 5.0 | 13.0 | 0.00 | 0.00 | 0.00 | 32 | 1017.7 |
| 20260901170710 | 88 | 260 | 2.0 | 13.0 | 0.00 | 0.00 | 0.00 | 32 | 1017.7 |
| 20260901170214 | 88 | 284 | 5.0 | 13.0 | 0.00 | 0.00 | 0.00 | 32 | 1017.7 |
| 20260901165213 | 89 | 274 | 5.0 | 14.0 | 0.00 | 0.00 | 0.00 | 32 | 1017.6 |
| 20260901164708 | 89 | 277 | 5.0 | 14.0 | 0.00 | 0.00 | 0.00 | 32 | 1017.7 |
| 20260901164218 | 89 | 274 | 5.0 | 13.0 | 0.00 | 0.00 | 0.00 | 32 | 1017.6 |
| 20260901163705 | 89 | 272 | 6.0 | 13.0 | 0.00 | 0.00 | 0.00 | 32 | 1017.6 |
| 20260901163215 | 90 | 265 | 6.0 | 13.0 | 0.00 | 0.00 | 0.00 | 32 | 1017.6 |
| 20260901162216 | 90 | 317 | 3.0 | 15.0 | 0.00 | 0.00 | 0.00 | 32 | 1017.6 |
| 20260901161718 | 90 | 274 | 6.0 | 15.0 | 0.00 | 0.00 | 0.00 | 32 | 1017.5 |
| 20260901161212 | 90 | 274 | 6.0 | 13.0 | 0.00 | 0.00 | 0.00 | 32 | 1017.5 |
| 20260901160719 | 90 | 298 | 5.0 | 13.0 | 0.00 | 0.00 | 0.00 | 32 | 1017.5 |
| 20260901160217 | 90 | 278 | 4.0 | 13.0 | 0.00 | 0.00 | 0.00 | 32 | 1017.4 |
| 20260901155704 | 90 | 281 | 5.0 | 12.0 | 0.00 | 0.00 | 0.00 | 32 | 1017.4 |